User: anonymous   Login
Location: Unspecified
(0.0000°N, 0.0000°E)
Time: 23:14:32
(UTC+00:00)
Language:

USA 184 - Orbit

View from above orbital plane
View from above orbital plane
View from above satellite
View from above satellite

Ground track
Ground track

The orbit data is extracted from the following two-line orbital elements,

1 29249U 06027A   18172.94693613 0.00000000  00000-0  00000-0 0    04
2 29249  62.8302 234.8757 6855386 271.1724  17.6798  2.00615000    02
Epoch (UTC): 21 June 2018 22:43:35
Eccentricity: 0.6855386
inclination: 62.8302°
perigee height: 1972 km
apogee height: 38382 km
right ascension of ascending node: 234.8757°
argument of perigee: 271.1724°
revolutions per day: 2.00615000
mean anomaly at epoch: 17.6798°
orbit number at epoch: 0

The dashed part of the orbit path shows where the satellite is in the earth's shadow,  

DLR